STARLINK-1154, 45198

Orbit data source: Space-Track

STARLINK-1154, 45198 is a payload satellite owned by SpaceX/Seattle (US) in LEO that was launched on Mon, 17 Feb 2020 UTC via an FALCON 9 launch vehicle from the Air Force Eastern Test Range (AFETR). Payload-class satellites include a variety of spacecraft equipped with specific instruments for various scientific and technological missions. These include communications satellites like Starlink; space stations such as the ISS; scientific satellites like the Hubble; Earth observation satellites from companies like Planet Labs, Umbra, and HawkEye 360; GPS; miniature CubeSats for education and research; and military/defense satellites.

Loading next visibility...
Identifier
45198, 2020-012W
Orbit
LEO
Country
Flag of USUS
Related business
Manufacturer
SpaceX/Seattle
Mission
Partially operational Commercial Communications
Bus & Motor
STARLINK, Unknown motor
Mass
260 kg wet, ~248 kg dry
Launch date (UTC)
2020-02-17 (6 years ago)
Launch vehicle
FALCON 9
Launch site
Air Force Eastern Test Range (AFETR)
Object type
Payload
Rocket body
Debris
Shape & HBR
Box + 1 Pan, 10.1 m
Radar Cross Section
13.562 m², Large (>1 m²)

Expand to show TLE details & history
Last TLE update: 2 days ago

TLE from 2 days ago
0 STARLINK-1154
1 45198U 20012W   26171.43671766  .00034576  00000-0  35315-3 0  9994
2 45198  53.0404 232.9626 0003618  20.2980 339.8178 15.64741655351286
Epoch: 2026-06-20T10:28Z
TLE epoch observation values (Epoch: 2026-06-20T10:28:52.405Z)
Latitude
0.00001°
Longitude
167.09289°
Altitude
372.589 km
Speed
7.689 km/s
True Right ascension
15h 31m 51s
True Declination
0° 00' 00"
Sunlit
Object was in full shadow at epoch
Visualization orbit readout
Latitude
Unknown
Longitude
Unknown
Altitude
Unknown
Speed
Unknown
Apparent Right ascension
Unknown
Apparent Declination
Unknown
Sunlit
N/A
Visualization observer readout
Local Sidereal Time
21:42:04
Azimuth
Unknown
Elevation
Unknown
Doppler factor
Unknown
Orbital elements
Apogee altitude
376.705 km
Perigee altitude
371.819 km
Semi-major axis
6,752.399 km
Eccentricity
0.00036
Inclination
53.0404°
RAAN
232.9626°
Arg. of periapsis
20.298°
True anomaly
339.80349°
Mean anomaly
339.8178°
Eccentric anomaly
339.81065°
Mean motion
3.91161 °/min
Orbital period
92.03 mins
BSTAR
0.00035315
Loading maneuver chart data...
Computing Atmospheric mass density...

Documentation

Showing up to 5 results
|